,,Stat5,,Stat1,,Stat2,,Stat3,,Stat4,,Wind1,,Wind1,
time,status,PA1M_AVG,status,PR1M_SUM,status,RH1M_AVG,status,SR1M_AVG,status,TA1M_AVG,status,W1dAve1m,status,W1sAve1m,
2002-11-22, 00:00:01,VALID,918.601,VALID,0,VALID,99.5081,VALID,-0.0339617,VALID,18.5733,VALID,27,VALID,0.438133,
2002-11-22, 00:01:00,VALID,918.61,VALID,0,VALID,99.5081,VALID,0,VALID,18.5765,VALID,19,VALID,0.526476,
2002-11-22, 00:02:00,VALID,918.597,VALID,0,VALID,99.517,VALID,-0.0509425,VALID,18.57,VALID,330,VALID,0.699424,
2002-11-22, 00:03:00,VALID,918.598,VALID,0,VALID,99.4865,VALID,-0.0679233,VALID,18.5313,VALID,241,VALID,0.497596,
2002-11-22, 00:04:00,VALID,918.597,VALID,0,VALID,99.4827,VALID,-0.0339617,VALID,18.5177,VALID,152,VALID,0.139569,
2002-11-22, 00:05:00,VALID,918.585,VALID,0.2,VALID,99.4929,VALID,-0.0169808,VALID,18.5313,VALID,16,VALID,0.502003,
2002-11-22, 00:06:00,VALID,918.592,VALID,0,VALID,99.4891,VALID,-0.0679233,VALID,18.538,VALID,26,VALID,0.528045,
2002-11-22, 00:07:00,VALID,918.564,VALID,0,VALID,99.4954,VALID,-0.0169808,VALID,18.5382,VALID,31,VALID,0.33676,
2002-11-22, 00:08:00,VALID,918.561,VALID,0,VALID,99.4929,VALID,0,VALID,18.5343,VALID,34,VALID,0.460732,
2002-11-22, 00:09:00,VALID,918.541,VALID,0,VALID,99.4827,VALID,-0.0169808,VALID,18.5147,VALID,39,VALID,0.0208333,
2002-11-22, 00:10:00,VALID,918.522,VALID,0,VALID,99.4713,VALID,-0.0169808,VALID,18.5084,VALID,44,VALID,0.101792,
2002-11-22, 00:11:00,VALID,918.533,VALID,0,VALID,99.4675,VALID,-0.0169808,VALID,18.5087,VALID,49,VALID,0.197461,
2002-11-22, 00:12:00,VALID,918.542,VALID,0,VALID,99.4687,VALID,-0.0339617,VALID,18.5084,VALID,47,VALID,0.139623,
2002-11-22, 00:13:00,VALID,918.52,VALID,0,VALID,99.4598,VALID,-0.0169808,VALID,18.5052,VALID,45,VALID,0.0296053,
2002-11-22, 00:14:00,VALID,918.518,VALID,0,VALID,99.4496,VALID,-0.0169808,VALID,18.5052,VALID,109,VALID,0.154605,
2002-11-22, 00:15:00,VALID,918.508,VALID,0,VALID,99.4382,VALID,-0.0339617,VALID,18.5052,VALID,14,VALID,0.891426,
2002-11-22, 00:16:00,VALID,918.488,VALID,0,VALID,99.4255,VALID,-0.0169808,VALID,18.499,VALID,22,VALID,1.35605,
2002-11-22, 00:17:00,VALID,918.487,VALID,0,VALID,99.4115,VALID,-0.0339617,VALID,18.4886,VALID,18,VALID,1.34252,
2002-11-22, 00:18:00,VALID,918.49,VALID,0,VALID,99.4013,VALID,-0.0339617,VALID,18.4858,VALID,6,VALID,0.484375,
2002-11-22, 00:19:00,VALID,918.495,VALID,0,VALID,99.3619,VALID,-0.0169808,VALID,18.4764,VALID,20,VALID,1.02724,
2002-11-22, 00:20:00,VALID,918.493,VALID,0,VALID,99.3492,VALID,-0.0339617,VALID,18.4764,VALID,21,VALID,0.708615,
2002-11-22, 00:21:00,VALID,918.484,VALID,0,VALID,99.3187,VALID,-0.0169808,VALID,18.4607,VALID,20,VALID,0.282517,
2002-11-22, 00:22:00,VALID,918.488,VALID,0,VALID,99.3034,VALID,-0.0169808,VALID,18.454,VALID,20,VALID,0.0015625,
2002-11-22, 00:23:00,VALID,918.496,VALID,0,VALID,99.278,VALID,-0.0169808,VALID,18.4545,VALID,30,VALID,0.386719,
2002-11-22, 00:24:00,VALID,918.481,VALID,0,VALID,99.2386,VALID,-0.0169808,VALID,18.4374,VALID,40,VALID,0.707442,
2002-11-22, 00:25:00,VALID,918.467,VALID,0,VALID,99.2144,VALID,-0.0169808,VALID,18.4279,VALID,4,VALID,0.696514,
2002-11-22, 00:26:00,VALID,918.475,VALID,0,VALID,99.2055,VALID,0,VALID,18.4342,VALID,279,VALID,0.447516,
2002-11-22, 00:27:00,VALID,918.487,VALID,0,VALID,99.1597,VALID,0,VALID,18.4344,VALID,187,VALID,0.580798,
2002-11-22, 00:28:00,VALID,918.478,VALID,0,VALID,99.0987,VALID,-0.0169808,VALID,18.4049,VALID,243,VALID,0.286395,
2002-11-22, 00:29:00,VALID,918.482,VALID,0,VALID,99.0504,VALID,-0.0509425,VALID,18.3885,VALID,307,VALID,0.587139,
2002-11-22, 00:30:00,VALID,918.477,VALID,0,VALID,98.9995,VALID,-0.0169808,VALID,18.418,VALID,331,VALID,0.490921,
2002-11-22, 00:31:00,VALID,918.493,VALID,0,VALID,98.9525,VALID,0,VALID,18.4406,VALID,3,VALID,0.628906,
2002-11-22, 00:32:01,VALID,918.488,VALID,0.2,VALID,98.8685,VALID,0,VALID,18.454,VALID,352,VALID,0.0653783,
2002-11-22, 00:33:00,VALID,918.481,VALID,0,VALID,98.7871,VALID,0,VALID,18.4602,VALID,5,VALID,0.375,
2002-11-22, 00:34:00,VALID,918.468,VALID,0,VALID,98.6829,VALID,0,VALID,18.4669,VALID,10,VALID,0.437911,
2002-11-22, 00:35:00,VALID,918.451,VALID,0,VALID,98.6167,VALID,-0.0509425,VALID,18.4577,VALID,25,VALID,0.576891,
2002-11-22, 00:36:00,VALID,918.446,VALID,0,VALID,98.5506,VALID,-0.135847,VALID,18.4745,VALID,25,VALID,0.147545,
2002-11-22, 00:37:00,VALID,918.441,VALID,0,VALID,98.5023,VALID,-0.101885,VALID,18.481,VALID,21,VALID,0.220753,
2002-11-22, 00:38:00,VALID,918.445,VALID,0,VALID,98.4235,VALID,-0.101885,VALID,18.4709,VALID,12,VALID,0.599301,
2002-11-22, 00:39:00,VALID,918.425,VALID,0,VALID,98.3764,VALID,-0.101885,VALID,18.4912,VALID,18,VALID,0.653646,
2002-11-22, 00:40:01,VALID,918.415,VALID,0,VALID,98.3052,VALID,-0.118866,VALID,18.4845,VALID,360,VALID,0.396382,
2002-11-22, 00:41:01,VALID,918.415,VALID,0,VALID,98.1933,VALID,-0.152827,VALID,18.4686,VALID,312,VALID,0.425391,
2002-11-22, 00:42:00,VALID,918.425,VALID,0,VALID,98.1234,VALID,-0.169808,VALID,18.4752,VALID,360,VALID,0.794141,
2002-11-22, 00:43:00,VALID,918.428,VALID,0,VALID,98.103,VALID,-0.0849042,VALID,18.4683,VALID,355,VALID,0.793269,
2002-11-22, 00:44:00,VALID,918.414,VALID,0,VALID,98.0967,VALID,-0.101885,VALID,18.4681,VALID,11,VALID,0.940625,
2002-11-22, 00:45:00,VALID,918.413,VALID,0,VALID,98.0992,VALID,-0.118866,VALID,18.4651,VALID,10,VALID,1.20566,
2002-11-22, 00:46:00,VALID,918.38,VALID,0,VALID,98.1246,VALID,-0.118866,VALID,18.4812,VALID,16,VALID,1.23944,
2002-11-22, 00:47:00,VALID,918.373,VALID,0,VALID,98.1424,VALID,-0.101885,VALID,18.4916,VALID,25,VALID,1.18518,
2002-11-22, 00:48:00,VALID,918.358,VALID,0,VALID,98.178,VALID,-0.101885,VALID,18.4815,VALID,5,VALID,0.921289,
2002-11-22, 00:49:01,VALID,918.361,VALID,0,VALID,98.1386,VALID,-0.118866,VALID,18.4819,VALID,357,VALID,0.883482,
2002-11-22, 00:50:00,VALID,918.359,VALID,0,VALID,98.1259,VALID,-0.0679233,VALID,18.4616,VALID,9,VALID,1.01602,
2002-11-22, 00:51:00,VALID,918.359,VALID,0.2,VALID,98.1501,VALID,-0.0339617,VALID,18.4545,VALID,29,VALID,1.46575,
2002-11-22, 00:52:00,VALID,918.306,VALID,0,VALID,98.1577,VALID,-0.0339617,VALID,18.451,VALID,28,VALID,1.07751,
2002-11-22, 00:53:00,VALID,918.307,VALID,0,VALID,98.2035,VALID,0,VALID,18.4706,VALID,353,VALID,0.817229,
2002-11-22, 00:54:00,VALID,918.321,VALID,0,VALID,98.1094,VALID,-0.0169808,VALID,18.4277,VALID,302,VALID,0.794471,
2002-11-22, 00:55:00,VALID,918.334,VALID,0,VALID,98.0814,VALID,-0.0509425,VALID,18.4088,VALID,357,VALID,0.77207,
2002-11-22, 00:56:01,VALID,918.32,VALID,0,VALID,98.1297,VALID,0,VALID,18.4157,VALID,347,VALID,0.486225,
2002-11-22, 00:57:00,VALID,918.335,VALID,0,VALID,98.1361,VALID,-0.0339617,VALID,18.4187,VALID,330,VALID,0.26242,
2002-11-22, 00:58:00,VALID,918.313,VALID,0,VALID,98.1615,VALID,-0.0169808,VALID,18.3956,VALID,328,VALID,0,
2002-11-22, 00:59:00,VALID,918.308,VALID,0,VALID,98.2098,VALID,-0.0339617,VALID,18.3993,VALID,328,VALID,0,
2002-11-22, 01:00:01,VALID,918.312,VALID,0,VALID,98.2467,VALID,-0.0339617,VALID,18.4058,VALID,4,VALID,0.319046,
2002-11-22, 01:01:00,VALID,918.304,VALID,0.2,VALID,98.2747,VALID,0,VALID,18.409,VALID,332,VALID,0.457422,
2002-11-22, 01:02:01,VALID,918.303,VALID,0,VALID,98.2938,VALID,-0.0339617,VALID,18.4028,VALID,323,VALID,0.528263,
2002-11-22, 01:03:00,VALID,918.308,VALID,0,VALID,98.3701,VALID,-0.0509425,VALID,18.4051,VALID,352,VALID,0.493421,
2002-11-22, 01:04:00,VALID,918.304,VALID,0,VALID,98.3739,VALID,-0.0339617,VALID,18.4286,VALID,340,VALID,0.147636,
2002-11-22, 01:05:01,VALID,918.291,VALID,0,VALID,98.3993,VALID,-0.0169808,VALID,18.4219,VALID,16,VALID,0.383614,
2002-11-22, 01:06:01,VALID,918.273,VALID,0,VALID,98.3879,VALID,-0.0169808,VALID,18.4159,VALID,347,VALID,0.243627,
2002-11-22, 01:07:00,VALID,918.267,VALID,0,VALID,98.4018,VALID,-0.0169808,VALID,18.3961,VALID,338,VALID,0.649009,
2002-11-22, 01:08:00,VALID,918.261,VALID,0,VALID,98.44,VALID,-0.0339617,VALID,18.3961,VALID,1,VALID,0.703726,
2002-11-22, 01:09:01,VALID,918.236,VALID,0,VALID,98.515,VALID,0.0169808,VALID,18.4093,VALID,6,VALID,0.778927,
2002-11-22, 01:10:00,VALID,918.229,VALID,0.2,VALID,98.5455,VALID,-0.0339617,VALID,18.4028,VALID,352,VALID,0.578742,
2002-11-22, 01:11:01,VALID,918.23,VALID,0,VALID,98.5773,VALID,0,VALID,18.4028,VALID,353,VALID,0.964227,
2002-11-22, 01:12:00,VALID,918.216,VALID,0,VALID,98.5875,VALID,0,VALID,18.3862,VALID,347,VALID,1.02304,
2002-11-22, 01:13:01,VALID,918.192,VALID,0,VALID,98.6091,VALID,0,VALID,18.3797,VALID,345,VALID,1.34005,
2002-11-22, 01:14:00,VALID,918.184,VALID,0,VALID,98.6104,VALID,-0.0169808,VALID,18.3765,VALID,356,VALID,1.03002,
2002-11-22, 01:15:00,VALID,918.179,VALID,0,VALID,98.6358,VALID,0,VALID,18.3802,VALID,5,VALID,1.11183,
2002-11-22, 01:16:00,VALID,918.178,VALID,0,VALID,98.6498,VALID,0,VALID,18.3733,VALID,3,VALID,0.678085,
2002-11-22, 01:17:01,VALID,918.174,VALID,0,VALID,98.6702,VALID,-0.0169808,VALID,18.3767,VALID,8,VALID,0.897821,
2002-11-22, 01:18:01,VALID,918.165,VALID,0,VALID,98.6956,VALID,-0.0169808,VALID,18.3763,VALID,4,VALID,0.934245,
2002-11-22, 01:19:01,VALID,918.147,VALID,0,VALID,98.6663,VALID,-0.0169808,VALID,18.3767,VALID,348,VALID,1.11184,
2002-11-22, 01:20:01,VALID,918.122,VALID,0,VALID,98.6676,VALID,-0.0339617,VALID,18.3735,VALID,13,VALID,1.65,
2002-11-22, 01:21:00,VALID,918.097,VALID,0,VALID,98.6358,VALID,-0.0679233,VALID,18.3834,VALID,1,VALID,1.12207,
2002-11-22, 01:22:00,VALID,918.086,VALID,0,VALID,98.6244,VALID,-0.0509425,VALID,18.3834,VALID,21,VALID,0.942909,
2002-11-22, 01:23:00,VALID,918.086,VALID,0.2,VALID,98.6091,VALID,-0.0849042,VALID,18.3804,VALID,20,VALID,1.10098,
2002-11-22, 01:24:00,VALID,918.05,VALID,0,VALID,98.6473,VALID,-0.0339617,VALID,18.3829,VALID,7,VALID,0.99668,
2002-11-22, 01:25:01,VALID,918.042,VALID,0,VALID,98.6536,VALID,-0.0509425,VALID,18.3834,VALID,12,VALID,1.17166,
2002-11-22, 01:26:00,VALID,918.036,VALID,0,VALID,98.646,VALID,-0.0169808,VALID,18.3832,VALID,3,VALID,0.569046,
2002-11-22, 01:27:00,VALID,918.031,VALID,0,VALID,98.6613,VALID,-0.0339617,VALID,18.3772,VALID,8,VALID,0.59043,
2002-11-22, 01:28:01,VALID,918.024,VALID,0,VALID,98.6651,VALID,-0.0509425,VALID,18.3765,VALID,9,VALID,0.520312,
2002-11-22, 01:29:01,VALID,918,VALID,0,VALID,98.688,VALID,-0.0169808,VALID,18.3737,VALID,15,VALID,0.810547,
2002-11-22, 01:30:00,VALID,917.98,VALID,0,VALID,98.7197,VALID,-0.0339617,VALID,18.3804,VALID,15,VALID,0.858173,
2002-11-22, 01:31:00,VALID,917.967,VALID,0,VALID,98.7159,VALID,-0.0169808,VALID,18.3668,VALID,14,VALID,0.77097,
2002-11-22, 01:32:00,VALID,917.952,VALID,0,VALID,98.7604,VALID,-0.0679233,VALID,18.3601,VALID,15,VALID,0.505551,
2002-11-22, 01:33:00,VALID,917.935,VALID,0,VALID,98.7655,VALID,-0.0679233,VALID,18.3673,VALID,358,VALID,0.909054,
2002-11-22, 01:34:00,VALID,917.923,VALID,0,VALID,98.7261,VALID,-0.0169808,VALID,18.3608,VALID,360,VALID,0.962891,
2002-11-22, 01:35:01,VALID,917.914,VALID,0,VALID,98.6969,VALID,-0.0339617,VALID,18.3543,VALID,337,VALID,1.33224,
2002-11-22, 01:36:00,VALID,917.901,VALID,0,VALID,98.6702,VALID,-0.0169808,VALID,18.3477,VALID,337,VALID,0.99399,
2002-11-22, 01:37:00,VALID,917.898,VALID,0,VALID,98.6663,VALID,-0.0169808,VALID,18.3479,VALID,6,VALID,1.24619,
2002-11-22, 01:38:00,VALID,917.885,VALID,0,VALID,98.6307,VALID,-0.0169808,VALID,18.3477,VALID,351,VALID,1.11043,
2002-11-22, 01:39:01,VALID,917.882,VALID,0.2,VALID,98.6091,VALID,-0.0169808,VALID,18.3548,VALID,7,VALID,0.525338,
2002-11-22, 01:40:00,VALID,917.88,VALID,0,VALID,98.6066,VALID,-0.0509425,VALID,18.3481,VALID,9,VALID,0.878711,
2002-11-22, 01:41:01,VALID,917.863,VALID,0,VALID,98.604,VALID,-0.0509425,VALID,18.3447,VALID,352,VALID,1.10294,
2002-11-22, 01:42:00,VALID,917.848,VALID,0,VALID,98.59,VALID,-0.0509425,VALID,18.3477,VALID,7,VALID,0.666941,
2002-11-22, 01:43:00,VALID,917.849,VALID,0,VALID,98.6396,VALID,-0.0509425,VALID,18.3412,VALID,14,VALID,0.758614,
2002-11-22, 01:44:00,VALID,917.844,VALID,0,VALID,98.6422,VALID,-0.0509425,VALID,18.361,VALID,11,VALID,1.14744,
2002-11-22, 01:45:00,VALID,917.828,VALID,0,VALID,98.6384,VALID,-0.0679233,VALID,18.341,VALID,356,VALID,0.651316,
2002-11-22, 01:46:00,VALID,917.818,VALID,0,VALID,98.6549,VALID,-0.0509425,VALID,18.3447,VALID,360,VALID,0.670351,
2002-11-22, 01:47:00,VALID,917.819,VALID,0,VALID,98.6498,VALID,-0.0509425,VALID,18.3285,VALID,291,VALID,0.195913,
2002-11-22, 01:48:01,VALID,917.801,VALID,0,VALID,98.688,VALID,-0.0509425,VALID,18.3414,VALID,2,VALID,0.20038,
2002-11-22, 01:49:00,VALID,917.784,VALID,0,VALID,98.7058,VALID,-0.0339617,VALID,18.3516,VALID,328,VALID,0.340049,
2002-11-22, 01:50:01,VALID,917.783,VALID,0,VALID,98.7223,VALID,0,VALID,18.3405,VALID,359,VALID,0.448808,
2002-11-22, 01:51:00,VALID,917.788,VALID,0,VALID,98.6918,VALID,0.0679233,VALID,18.3428,VALID,5,VALID,0.547476,
2002-11-22, 01:52:00,VALID,917.782,VALID,0,VALID,98.6841,VALID,0.0679233,VALID,18.3467,VALID,342,VALID,0.516242,
2002-11-22, 01:53:00,VALID,917.772,VALID,0,VALID,98.6447,VALID,0.0679233,VALID,18.3239,VALID,324,VALID,0.456003,
2002-11-22, 01:54:00,VALID,917.774,VALID,0,VALID,98.6384,VALID,0.0339617,VALID,18.3239,VALID,321,VALID,0.384375,
2002-11-22, 01:55:01,VALID,917.779,VALID,0,VALID,98.6422,VALID,0.0169808,VALID,18.3174,VALID,329,VALID,0.289663,
2002-11-22, 01:56:01,VALID,917.772,VALID,0,VALID,98.6422,VALID,0.0339617,VALID,18.3241,VALID,9,VALID,0.512952,
2002-11-22, 01:57:00,VALID,917.748,VALID,0,VALID,98.6625,VALID,0.0169808,VALID,18.3308,VALID,22,VALID,0.510634,
2002-11-22, 01:58:01,VALID,917.745,VALID,0.2,VALID,98.6816,VALID,0.0169808,VALID,18.3373,VALID,19,VALID,0.707442,
2002-11-22, 01:59:01,VALID,917.731,VALID,0,VALID,98.6651,VALID,0.0169808,VALID,18.337,VALID,5,VALID,0.59043,
2002-11-22, 02:00:00,VALID,917.733,VALID,0,VALID,98.6841,VALID,0.0339617,VALID,18.3303,VALID,355,VALID,0.377734,
2002-11-22, 02:01:01,VALID,917.737,VALID,0,VALID,98.6714,VALID,0.0169808,VALID,18.3303,VALID,14,VALID,0.248998,
2002-11-22, 02:02:01,VALID,917.738,VALID,0,VALID,98.6396,VALID,0.0339617,VALID,18.3343,VALID,12,VALID,0.251953,
2002-11-22, 02:03:00,VALID,917.728,VALID,0,VALID,98.6218,VALID,0.0169808,VALID,18.3144,VALID,360,VALID,0.45332,
2002-11-22, 02:04:00,VALID,917.72,VALID,0,VALID,98.6066,VALID,0.0169808,VALID,18.3142,VALID,6,VALID,0.286106,
2002-11-22, 02:05:00,VALID,917.724,VALID,0,VALID,98.585,VALID,0.0679233,VALID,18.3207,VALID,350,VALID,0.354818,
2002-11-22, 02:06:01,VALID,917.724,VALID,0,VALID,98.59,VALID,0.0339617,VALID,18.3303,VALID,356,VALID,0.74082,
2002-11-22, 02:07:01,VALID,917.724,VALID,0,VALID,98.5354,VALID,0.0339617,VALID,18.34,VALID,9,VALID,1.00491,
2002-11-22, 02:08:00,VALID,917.71,VALID,0,VALID,98.4896,VALID,0.0169808,VALID,18.3463,VALID,13,VALID,1.09434,
2002-11-22, 02:09:00,VALID,917.714,VALID,0,VALID,98.454,VALID,0,VALID,18.3594,VALID,20,VALID,1.0016,
2002-11-22, 02:10:01,VALID,917.709,VALID,0,VALID,98.4235,VALID,0.0169808,VALID,18.3723,VALID,24,VALID,1.13569,
2002-11-22, 02:11:00,VALID,917.692,VALID,0,VALID,98.3751,VALID,0.0509425,VALID,18.3823,VALID,20,VALID,0.851768,
2002-11-22, 02:12:01,VALID,917.685,VALID,0,VALID,98.3344,VALID,0,VALID,18.3693,VALID,344,VALID,0.271635,
2002-11-22, 02:13:00,VALID,917.671,VALID,0,VALID,98.2976,VALID,0.0509425,VALID,18.3663,VALID,340,VALID,0.352539,
2002-11-22, 02:14:01,VALID,917.666,VALID,0,VALID,98.2569,VALID,0.0339617,VALID,18.3691,VALID,340,VALID,0.257607,
2002-11-22, 02:15:00,VALID,917.676,VALID,0,VALID,98.2187,VALID,0.0509425,VALID,18.3564,VALID,349,VALID,0.284054,
2002-11-22, 02:16:00,VALID,917.687,VALID,0,VALID,98.1806,VALID,0.0679233,VALID,18.3626,VALID,10,VALID,0.61238,
2002-11-22, 02:17:01,VALID,917.678,VALID,0,VALID,98.1564,VALID,0.0339617,VALID,18.3626,VALID,18,VALID,0.620777,
2002-11-22, 02:18:01,VALID,917.669,VALID,0,VALID,98.1628,VALID,0.0169808,VALID,18.3723,VALID,22,VALID,0.845439,
2002-11-22, 02:19:00,VALID,917.648,VALID,0,VALID,98.117,VALID,0.0509425,VALID,18.3753,VALID,19,VALID,0.762109,
2002-11-22, 02:20:01,VALID,917.648,VALID,0,VALID,98.1259,VALID,-0.0339617,VALID,18.3763,VALID,5,VALID,0.934513,
2002-11-22, 02:21:01,VALID,917.639,VALID,0,VALID,98.1221,VALID,-0.0339617,VALID,18.3737,VALID,7,VALID,0.848684,
2002-11-22, 02:22:01,VALID,917.641,VALID,0,VALID,98.1208,VALID,-0.0339617,VALID,18.3742,VALID,7,VALID,0.70653,
2002-11-22, 02:23:01,VALID,917.616,VALID,0,VALID,98.1005,VALID,-0.0169808,VALID,18.3511,VALID,345,VALID,0.628405,
2002-11-22, 02:24:01,VALID,917.616,VALID,0,VALID,98.0928,VALID,-0.0339617,VALID,18.3352,VALID,340,VALID,0.566406,
2002-11-22, 02:25:01,VALID,917.609,VALID,0,VALID,98.0954,VALID,-0.0169808,VALID,18.328,VALID,5,VALID,0.844703,
2002-11-22, 02:26:01,VALID,917.604,VALID,0,VALID,98.1132,VALID,-0.0339617,VALID,18.332,VALID,17,VALID,0.891426,
2002-11-22, 02:27:01,VALID,917.594,VALID,0,VALID,98.1399,VALID,-0.0169808,VALID,18.3382,VALID,14,VALID,0.940878,
2002-11-22, 02:28:01,VALID,917.592,VALID,0,VALID,98.1755,VALID,-0.0339617,VALID,18.3384,VALID,12,VALID,0.740132,
2002-11-22, 02:29:01,VALID,917.602,VALID,0,VALID,98.2251,VALID,-0.0509425,VALID,18.3382,VALID,12,VALID,0.568051,
2002-11-22, 02:30:01,VALID,917.595,VALID,0,VALID,98.2213,VALID,-0.0169808,VALID,18.3347,VALID,2,VALID,0.444511,
2002-11-22, 02:31:01,VALID,917.59,VALID,0,VALID,98.1933,VALID,-0.0509425,VALID,18.322,VALID,349,VALID,0.517064,
2002-11-22, 02:32:01,VALID,917.58,VALID,0,VALID,98.1908,VALID,-0.0509425,VALID,18.329,VALID,336,VALID,0.514597,
2002-11-22, 02:33:01,VALID,917.573,VALID,0,VALID,98.1857,VALID,-0.0169808,VALID,18.3059,VALID,341,VALID,0.563839,
2002-11-22, 02:34:01,VALID,917.56,VALID,0,VALID,98.2073,VALID,-0.0169808,VALID,18.3027,VALID,335,VALID,0.131811,
2002-11-22, 02:35:01,VALID,917.547,VALID,0,VALID,98.2137,VALID,0,VALID,18.2985,VALID,335,VALID,0,
2002-11-22, 02:36:01,VALID,917.541,VALID,0,VALID,98.2327,VALID,0.0849042,VALID,18.3013,VALID,339,VALID,0.134766,
2002-11-22, 02:37:01,VALID,917.527,VALID,0,VALID,98.2505,VALID,0.0339617,VALID,18.3013,VALID,341,VALID,0.120066,
2002-11-22, 02:38:01,VALID,917.517,VALID,0,VALID,98.2518,VALID,0.0509425,VALID,18.2978,VALID,340,VALID,0.00292969,
2002-11-22, 02:39:01,VALID,917.509,VALID,0,VALID,98.2849,VALID,0.0169808,VALID,18.3011,VALID,340,VALID,0,
2002-11-22, 02:40:00,VALID,917.507,VALID,0,VALID,98.3014,VALID,0.0509425,VALID,18.3149,VALID,348,VALID,0.130409,
2002-11-22, 02:41:00,VALID,917.516,VALID,0,VALID,98.3243,VALID,0.0679233,VALID,18.3174,VALID,358,VALID,0.379883,
2002-11-22, 02:42:00,VALID,917.521,VALID,0,VALID,98.3573,VALID,0.0509425,VALID,18.3336,VALID,19,VALID,0.423828,
2002-11-22, 02:43:00,VALID,917.527,VALID,0,VALID,98.3344,VALID,0.0679233,VALID,18.3366,VALID,25,VALID,0.31609,
2002-11-22, 02:44:00,VALID,917.53,VALID,0,VALID,98.3701,VALID,0.0509425,VALID,18.3435,VALID,24,VALID,0.271115,
2002-11-22, 02:45:00,VALID,917.54,VALID,0,VALID,98.351,VALID,0.0679233,VALID,18.3502,VALID,21,VALID,0.546875,
2002-11-22, 02:46:00,VALID,917.537,VALID,0,VALID,98.3535,VALID,0.0509425,VALID,18.3562,VALID,21,VALID,0.580804,
2002-11-22, 02:47:00,VALID,917.542,VALID,0,VALID,98.3446,VALID,0.0679233,VALID,18.3564,VALID,21,VALID,0.550781,
2002-11-22, 02:48:00,VALID,917.533,VALID,0,VALID,98.2976,VALID,0.0509425,VALID,18.3562,VALID,21,VALID,0.566106,
2002-11-22, 02:49:00,VALID,917.528,VALID,0,VALID,98.3128,VALID,0.101885,VALID,18.3693,VALID,21,VALID,0.273643,
2002-11-22, 02:50:00,VALID,917.525,VALID,0,VALID,98.3306,VALID,0.0509425,VALID,18.3756,VALID,21,VALID,0.00986842,
2002-11-22, 02:51:00,VALID,917.51,VALID,0,VALID,98.3421,VALID,0.0339617,VALID,18.3818,VALID,21,VALID,0.0701122,
2002-11-22, 02:52:00,VALID,917.503,VALID,0,VALID,98.3256,VALID,0.0849042,VALID,18.3756,VALID,9,VALID,0.225586,
2002-11-22, 02:53:00,VALID,917.489,VALID,0,VALID,98.2938,VALID,0.0679233,VALID,18.3723,VALID,5,VALID,0.344367,
2002-11-22, 02:54:00,VALID,917.468,VALID,0,VALID,98.2747,VALID,0.0509425,VALID,18.3684,VALID,7,VALID,0.241787,
2002-11-22, 02:55:00,VALID,917.455,VALID,0,VALID,98.3077,VALID,0.0849042,VALID,18.3756,VALID,15,VALID,0.366186,
2002-11-22, 02:56:00,VALID,917.453,VALID,0,VALID,98.3167,VALID,0.0509425,VALID,18.3853,VALID,16,VALID,0.264569,
2002-11-22, 02:57:00,VALID,917.434,VALID,0,VALID,98.3306,VALID,0.0169808,VALID,18.3919,VALID,16,VALID,0.117399,
2002-11-22, 02:58:00,VALID,917.436,VALID,0,VALID,98.3357,VALID,0,VALID,18.3919,VALID,16,VALID,0.0398437,
2002-11-22, 02:59:00,VALID,917.417,VALID,0,VALID,98.3344,VALID,0.0339617,VALID,18.4016,VALID,16,VALID,0.257813,
2002-11-22, 03:00:00,VALID,917.402,VALID,0,VALID,98.3446,VALID,0.0849042,VALID,18.3982,VALID,16,VALID,0.287007,
2002-11-22, 03:01:00,VALID,917.396,VALID,0,VALID,98.3713,VALID,0.0509425,VALID,18.4178,VALID,16,VALID,0.327123,
2002-11-22, 03:02:00,VALID,917.389,VALID,0,VALID,98.3815,VALID,0.0169808,VALID,18.4247,VALID,16,VALID,0.371795,
2002-11-22, 03:03:00,VALID,917.377,VALID,0,VALID,98.4108,VALID,0.0339617,VALID,18.4111,VALID,16,VALID,0.390214,
2002-11-22, 03:04:00,VALID,917.369,VALID,0,VALID,98.4324,VALID,0.0849042,VALID,18.4169,VALID,16,VALID,0.528201,
2002-11-22, 03:05:00,VALID,917.365,VALID,0,VALID,98.4044,VALID,0.0169808,VALID,18.4116,VALID,15,VALID,0.909255,
2002-11-22, 03:06:00,VALID,917.365,VALID,0,VALID,98.3993,VALID,-0.0679233,VALID,18.4095,VALID,13,VALID,0.739443,
2002-11-22, 03:07:00,VALID,917.362,VALID,0,VALID,98.426,VALID,-0.0339617,VALID,18.4095,VALID,13,VALID,0.313322,
2002-11-22, 03:08:00,VALID,917.357,VALID,0,VALID,98.4235,VALID,-0.0509425,VALID,18.4093,VALID,13,VALID,0.140214,
2002-11-22, 03:09:00,VALID,917.351,VALID,0,VALID,98.4247,VALID,-0.0339617,VALID,18.4162,VALID,13,VALID,0,
2002-11-22, 03:10:00,VALID,917.352,VALID,0,VALID,98.4514,VALID,-0.0679233,VALID,18.4093,VALID,13,VALID,0.000205592,
2002-11-22, 03:11:00,VALID,917.343,VALID,0,VALID,98.4858,VALID,-0.0509425,VALID,18.4157,VALID,13,VALID,0.10773,
2002-11-22, 03:12:00,VALID,917.36,VALID,0,VALID,98.4692,VALID,-0.0339617,VALID,18.4095,VALID,13,VALID,0.0167411,
2002-11-22, 03:13:00,VALID,917.368,VALID,0.2,VALID,98.4832,VALID,-0.0679233,VALID,18.4199,VALID,13,VALID,0.0260417,
2002-11-22, 03:14:00,VALID,917.377,VALID,0,VALID,98.482,VALID,-0.0169808,VALID,18.4028,VALID,13,VALID,0,
2002-11-22, 03:15:00,VALID,917.38,VALID,0,VALID,98.4794,VALID,-0.0679233,VALID,18.4058,VALID,13,VALID,0.00759549,
2002-11-22, 03:16:00,VALID,917.378,VALID,0,VALID,98.4858,VALID,-0.0509425,VALID,18.4224,VALID,9,VALID,0.43935,
2002-11-22, 03:17:00,VALID,917.382,VALID,0,VALID,98.4998,VALID,-0.0509425,VALID,18.4254,VALID,9,VALID,0.167578,
2002-11-22, 03:18:00,VALID,917.373,VALID,0,VALID,98.5074,VALID,-0.0509425,VALID,18.4321,VALID,9,VALID,0.0363281,
2002-11-22, 03:19:00,VALID,917.388,VALID,0,VALID,98.5176,VALID,-0.0679233,VALID,18.4448,VALID,9,VALID,0.202524,
2002-11-22, 03:20:00,VALID,917.384,VALID,0,VALID,98.5265,VALID,-0.0339617,VALID,18.4413,VALID,9,VALID,0.329297,
2002-11-22, 03:21:00,VALID,917.368,VALID,0,VALID,98.5443,VALID,0,VALID,18.4545,VALID,9,VALID,0.195508,
2002-11-22, 03:22:00,VALID,917.372,VALID,0,VALID,98.5811,VALID,0.0169808,VALID,18.4512,VALID,9,VALID,0.141258,
2002-11-22, 03:23:00,VALID,917.376,VALID,0,VALID,98.5977,VALID,0.0169808,VALID,18.4542,VALID,9,VALID,0.176098,
2002-11-22, 03:24:00,VALID,917.365,VALID,0,VALID,98.6117,VALID,0.0339617,VALID,18.4508,VALID,9,VALID,0.518945,
2002-11-22, 03:25:00,VALID,917.369,VALID,0,VALID,98.6053,VALID,0.0339617,VALID,18.4409,VALID,9,VALID,0.555357,
2002-11-22, 03:26:00,VALID,917.36,VALID,0,VALID,98.6396,VALID,0,VALID,18.4282,VALID,9,VALID,0.482617,
2002-11-22, 03:27:00,VALID,917.358,VALID,0,VALID,98.6587,VALID,-0.0169808,VALID,18.4247,VALID,9,VALID,0.265425,
2002-11-22, 03:28:00,VALID,917.367,VALID,0,VALID,98.6396,VALID,0,VALID,18.4192,VALID,11,VALID,0.421464,
2002-11-22, 03:29:00,VALID,917.376,VALID,0,VALID,98.6625,VALID,0,VALID,18.3993,VALID,12,VALID,0.0676398,
2002-11-22, 03:30:00,VALID,917.359,VALID,0,VALID,98.6689,VALID,0,VALID,18.3926,VALID,21,VALID,0.0324519,
2002-11-22, 03:31:00,VALID,917.365,VALID,0,VALID,98.6841,VALID,0,VALID,18.3829,VALID,22,VALID,0,